Flag for France Weather past 2 weeks in Saint-Étienne, France

Now
55 °F

Sunny.


Feels Like: 55 °F
Forecast: 61 / 71 °F
Wind: 2 mph from South

Location: St-Etienne Boutheon

Current Time: Aug 1, 2014 at 8:41:08 AM

Latest Report: Aug 1, 2014 at 8:00 AM


Visibility: 10 mi

Pressure: 29.92 "Hg

Humidity: 100%

Dew point: 55 °F

Location of Saint-ÉtienneLocation

Historic Weather in Saint-Étienne — Graph

°F

Saint-Étienne temperature yesterday

Maximum temperature yesterday: 75 °F (at 3:30 PM)
Minimum temperature yesterday: 54 °F (at 5:00 AM)
Average temperature yesterday: 65 °F

Past Weeks' High & Low Weather Summary

 TemperatureHumidityPressure
High93 °F (Jul 18, 3:00 PM)100% (Jul 23, 4:30 AM)30.15 "Hg (Jul 23, 4:30 AM)
Low54 °F (Jul 31, 5:00 AM)22% (Jul 19, 3:00 PM)29.83 "Hg (Jul 19, 6:00 PM)
Average67 °F73%29.98 "Hg
* Reported Jul 17 7:00 AM — Aug 1 7:30 AM, Saint-Étienne, Weather by CustomWeather, © 2014

Note: Actual official high and low records may vary slightly from our data, if they occured in-between our weather recording intervals... More about our weather records

Advertising

Saint-Étienne weather history for previous 24 hours

 ConditionsComfort  
Time TempWeatherWind HumidityBarometerVisibility
7:30 AM
Aug 1
54 °FFog.No wind100%29.92 "HgN/A
7:00 AM54 °FFog.No wind94%29.92 "HgN/A
6:30 AM54 °FFog.No wind94%29.92 "HgN/A
5:30 AM54 °FClear.2 mph94%29.92 "Hg6 mi
5:00 AM55 °FClear.No wind94%29.92 "Hg4 mi
4:30 AM55 °FFog.No wind94%29.92 "Hg2 mi
4:00 AM55 °FClear.No wind94%29.95 "Hg4 mi
3:30 AM55 °FClear.1 mph94%29.95 "Hg4 mi
3:00 AM57 °FClear.No wind88%29.95 "HgN/A
2:30 AM57 °FClear.1 mph88%29.95 "HgN/A
2:00 AM57 °FFog.1 mph88%29.95 "Hg1 mi
1:30 AM59 °FClear.2 mph88%29.95 "HgN/A
1:00 AM59 °FClear.1 mph88%29.95 "HgN/A
12:30 AM59 °FClear.No wind88%29.95 "HgN/A
12:00 AM61 °FClear.1 mph83%29.98 "HgN/A
11:30 PM
Jul 31
61 °FClear.2 mph88%29.98 "HgN/A
11:00 PM63 °FPassing clouds.2 mph83%29.98 "HgN/A
10:30 PM64 °FPassing clouds.2 mph78%29.98 "HgN/A
10:00 PM66 °FClear.No wind73%29.98 "HgN/A
9:30 PM70 °FClear.1 mph64%29.95 "Hg4 mi
9:00 PM72 °FClear.3 mph57%29.95 "HgN/A
8:30 PM73 °FClear.6 mph53%29.95 "HgN/A
8:00 PM75 °FClear.7 mph50%29.95 "HgN/A
7:30 PM75 °FClear.8 mph50%29.95 "HgN/A
7:00 PM75 °FClear.9 mph50%29.95 "HgN/A
6:30 PM75 °FPassing clouds.9 mph50%29.95 "HgN/A
6:00 PM75 °FPassing clouds.9 mph50%29.95 "HgN/A
5:30 PM75 °FPassing clouds.8 mph50%29.95 "HgN/A
5:00 PM75 °FPassing clouds.9 mph50%29.95 "HgN/A
4:30 PM75 °FScattered clouds.9 mph50%29.95 "HgN/A
4:00 PM75 °FScattered clouds.9 mph54%29.95 "HgN/A
3:30 PM75 °FScattered clouds.9 mph54%29.98 "HgN/A
3:00 PM73 °FScattered clouds.8 mph57%29.98 "HgN/A
2:30 PM73 °FScattered clouds.7 mph57%29.98 "HgN/A
2:00 PM73 °FScattered clouds.7 mph53%29.98 "HgN/A
1:30 PM72 °FPassing clouds.5 mph57%30.01 "HgN/A
1:00 PM72 °FPassing clouds.6 mph57%30.01 "HgN/A
12:30 PM72 °FPassing clouds.7 mph61%30.01 "HgN/A
12:00 PM70 °FPassing clouds.3 mph69%30.01 "HgN/A
11:30 AM68 °FPassing clouds.3 mph73%30.01 "HgN/A
11:00 AM68 °FPassing clouds.2 mph73%30.01 "HgN/A
10:30 AM66 °FPassing clouds.2 mph73%30.01 "HgN/A
10:00 AM64 °FPassing clouds.2 mph78%30.01 "HgN/A
9:30 AM63 °FPassing clouds.2 mph83%30.04 "HgN/A
9:00 AM59 °FPassing clouds.No wind94%30.01 "HgN/A
8:30 AM59 °FSunny.No wind88%30.04 "Hg10 mi
8:00 AM55 °FSunny.No wind100%30.01 "Hg10 mi
Weather by CustomWeather, © 2014

See weather overviewHow to use our weather pages